{"data":{"norad_id":66690,"intl_designator":"2025-276AA","name":"TRANSPORTER-15 OBJECT AA","alt_names":[],"object_type":"PAYLOAD","status":"ACTIVE","operator":null,"country":"TBD","launch_date":"2025-11-28","launch_site_code":"AFWTR","launch_vehicle":null,"mission":null,"orbit_class":"UNKNOWN","rcs_meters":null,"size_class":null,"mass_kg":null,"dimensions":null,"purposes":[],"wikipedia_slug":null,"has_3d_model":false,"image_url":null,"decayed_at":null,"tle_current":{"epoch":"2026-05-25T03:43:29.319744Z","epoch_age_seconds":55025,"freshness":"FRESH","line1":"1 66690U 25276AA  26145.15520046  .00004349  00000+0  21213-3 0  9991","line2":"2 66690  97.4187 218.9077 0006399  84.9138 275.2827 15.18812246 26918","mean_motion":15.18812246,"eccentricity":0.0006399,"inclination_deg":97.4187,"raan_deg":218.9077,"arg_perigee_deg":84.9138,"mean_anomaly_deg":275.2827,"bstar":0.00021213,"rev_number":2691,"period_min":94.810928986939,"perigee_km":505.02176895656,"apogee_km":513.83647608016,"semimajor_km":6887.5661225184,"source":"CELESTRAK","updated_at":"2026-05-25T13:38:06.413174Z"}}}